Location: Blackwall
(51.5097°N, 0.0016°W)
Time: 03:37:23
(UTC+00:00)

NOSS 0 Rocket - Pass Details

Date: 15 May 2026
Orbit: 936 x 952 km, 70.0° (Epoch: 8 June)

Event Time Altitude Azimuth Distance (km) Brightness Sun altitude
Rises 23:19:22 0° 326° (NW) 3,617 8.2 -19.0°
Reaches altitude 10° 23:21:55 10° 324° (NW) 2,666 7.2 -19.0°
Maximum altitude 23:28:02 67° 244° (WSW) 1,014 4.0 -19.2°
Enters shadow 23:30:48 34° 172° (S) 1,507 4.4 -19.2°
